This is the latest recevied weather packets stored in our database for station/object N3SBK. If no packets are shown the sender has not sent any weather packets the latest 1 day(s).
| Time | Temp. | Humidity | Pressure | Rain* | Wind** | Luminosity | Snow |
|---|---|---|---|---|---|---|---|
| 1778055607 | 13.89° C | 85% | 998.3 hPa | 0 mm | - | 0 W/m² | - |
| 1778055306 | 13.89° C | 85% | 998.4 hPa | 0 mm | - | 0 W/m² | - |
| 1778055003 | 13.89° C | 85% | 998.3 hPa | 0 mm | - | 0 W/m² | - |
| 1778054700 | 13.89° C | 85% | 998.5 hPa | 0 mm | - | 0 W/m² | - |
| 1778054397 | 13.89° C | 85% | 998.7 hPa | 0 mm | - | 0 W/m² | - |
| 1778054095 | 13.89° C | 84% | 998.6 hPa | 0 mm | - | 0 W/m² | - |
| 1778053791 | 13.89° C | 84% | 998.5 hPa | 0 mm | - | 0 W/m² | - |
| 1778052581 | 13.89° C | 86% | 998.6 hPa | 0 mm | - | 0 W/m² | - |
| 1778051976 | 13.89° C | 84% | 998.8 hPa | 0 mm | - | 0 W/m² | - |
| 1778051673 | 13.89° C | 84% | 999.1 hPa | 0 mm | - | 0 W/m² | - |
| 1778051370 | 13.89° C | 84% | 998.9 hPa | 0 mm | - | 0 W/m² | - |
| 1778051067 | 13.89° C | 83% | 999.5 hPa | 0 mm | - | 0 W/m² | - |
| 1778050764 | 13.89° C | 82% | 999.4 hPa | 0 mm | - | 0 W/m² | - |
| 1778050158 | 14.44° C | 82% | 999.6 hPa | 0 mm | - | 0 W/m² | - |
| 1778049854 | 14.44° C | 80% | 999.6 hPa | 0 mm | - | 0 W/m² | - |
| 1778049551 | 14.44° C | 80% | 1000 hPa | 0 mm | - | 0 W/m² | - |
| 1778048037 | 15° C | 74% | 1000.6 hPa | 0 mm | - | 0 W/m² | - |
| 1778047735 | 15° C | 76% | 1000.4 hPa | 0 mm | - | 0 W/m² | - |
| 1778047433 | 15° C | 77% | 1000.6 hPa | 0 mm | - | 0 W/m² | - |
| 1778046826 | 15.56° C | 71% | 1000.3 hPa | 0 mm | - | 0 W/m² | - |
| 1778046523 | 15.56° C | 71% | 1000.2 hPa | 0 mm | - | 0 W/m² | - |
| 1778046220 | 15.56° C | 70% | 1000.2 hPa | 0 mm | - | 0 W/m² | - |
| 1778045916 | 15.56° C | 69% | 1000.4 hPa | 0 mm | - | 0 W/m² | - |
| 1778045615 | 16.11° C | 69% | 1000.5 hPa | 0 mm | - | 0 W/m² | - |
| 1778045313 | 16.67° C | 65% | 1000.4 hPa | 0 mm | - | 0 W/m² | - |
* Rain latest hour (hover to see other rain measurements)
** Current wind speed in m/s (hover to see current wind gust speed)